Flag for Germany Weather past 2 weeks in Filderstadt, Baden-Württemberg, Germany

Now
48 °F

Passing clouds.


Feels Like: 47 °F
Forecast: 30 / 49 °F
Wind: 3 mph from East

Location: Stuttgart-Echterdingen

Current Time: Mar 6, 2015 at 3:20:48 PM

Latest Report: Mar 6, 2015 at 3:00 PM


Visibility: 31 mi

Pressure: 30.60 "Hg

Humidity: 50%

Dew point: 30 °F

Location of FilderstadtLocation

Historic Weather in Filderstadt — Graph

°F

Filderstadt temperature yesterday

Maximum temperature yesterday: 42 °F (at 2:00 PM)
Minimum temperature yesterday: 34 °F (at 1:00 AM)
Average temperature yesterday: 38 °F

Past Weeks' High & Low Weather Summary

 TemperatureHumidityPressure
High55 °F (Feb 20, 3:00 PM)97% (Feb 20, 5:00 AM)30.71 "Hg (Feb 20, 5:00 AM)
Low24 °F (Feb 20, 5:00 AM)38% (Feb 20, 4:00 PM)29.55 "Hg (Feb 23, 5:00 PM)
Average38 °F75%30.05 "Hg
* Reported Feb 19 2:00 PM — Mar 6 2:00 PM, Filderstadt, Weather by CustomWeather, © 2015

Note: Actual official high and low records may vary slightly from our data, if they occured in-between our weather recording intervals... More about our weather records

Advertising

Filderstadt weather history for previous 24 hours

 ConditionsComfort  
Time TempWeatherWind HumidityBarometerVisibility
2:00 PM
Fri, Mar 6
47 °FScattered clouds.1 mph49%30.63 "Hg31 mi
1:00 PM46 °FScattered clouds.1 mph50%30.65 "Hg31 mi
12:00 PM43 °FScattered clouds.1 mph54%30.67 "Hg25 mi
11:00 AM41 °FPassing clouds.2 mph66%30.68 "Hg22 mi
10:00 AM37 °FOvercast.2 mph77%30.70 "Hg22 mi
9:00 AM34 °FOvercast.1 mph84%30.71 "Hg22 mi
8:00 AM31 °FOvercast.1 mph90%30.71 "Hg22 mi
7:00 AM31 °FOvercast.1 mph90%30.70 "Hg22 mi
6:00 AM30 °FPassing clouds.1 mph89%30.69 "Hg25 mi
5:00 AM30 °FOvercast.2 mph86%30.68 "Hg25 mi
4:00 AM29 °FClear.1 mph86%30.68 "Hg25 mi
3:00 AM31 °FClear.1 mph83%30.68 "Hg31 mi
2:00 AM31 °FPassing clouds.3 mph82%30.69 "Hg31 mi
1:00 AM32 °FPassing clouds.2 mph79%30.68 "Hg31 mi
12:00 AM35 °FPassing clouds.1 mph75%30.68 "Hg31 mi
9:00 PM
Thu, Mar 5
38 °FOvercast.3 mph68%30.66 "Hg37 mi
8:00 PM39 °FOvercast.3 mph62%30.65 "Hg37 mi
7:00 PM40 °FOvercast.5 mph63%30.64 "Hg43 mi
6:00 PM40 °FOvercast.7 mph59%30.62 "Hg43 mi
5:00 PM42 °FOvercast.6 mph52%30.61 "Hg43 mi
4:00 PM42 °FOvercast.5 mph49%30.60 "Hg37 mi
3:00 PM42 °FOvercast.7 mph45%30.60 "Hg37 mi
Weather by CustomWeather, © 2015

See weather overviewHow to use our weather pages